Weather Roundup
Issued by NWS Springfield, MO

Home | Current Version | Previous Version | Text Only | Print | Product List | Glossary On
Versions: 1 2 3 4 5 6 7 8 9 10 11 12 13 14 15 16 17 18 19 20 21 22 23 24 25 26 27 28 29 30 31 32 33 34 35 36 37 38 39 40 41 42 43 44 45 46 47 48 49 50
000
NZUS99 KSGF 250207
HRRSGF

HOURLY WEATHER
NATIONAL WEATHER SERVICE SPRINGFIELD MO
800 PM CST MON NOV 24 2014

......SGF CWA......

CITY           SKY/WX    TMP DP  RH WIND       PRES   REMARKS
SPRINGFIELD    CLEAR     38  25  59 NW3       30.00R
JOPLIN         CLEAR     38  24  57 W6        30.05R WCI  33
WEST PLAINS    CLEAR     39  27  62 W6        29.98R WCI  35
ROLLA          MOCLDY    35  26  69 W13       29.96R WCI  26
OSAGE BEACH    CLEAR     37  23  56 W6        29.99R WCI  33
BRANSON        CLEAR     41  25  52 W9        30.02R

......SURROUNDING SGF CWA......

CITY           SKY/WX    TMP DP  RH WIND       PRES   REMARKS
CHANUTE        CLEAR     37  21  52 NW9       30.05R WCI  30
PARSONS        CLEAR     35  22  58 NW6       30.07R WCI  30
COFFEYVILLE    CLEAR     38  23  55 NW6       30.07R WCI  33
EMPORIA        CLEAR     31  18  58 W6        30.05R WCI  25
GROVE OK       FAIR      43  27  52 NW3       30.08R
ROGERS AR      CLEAR     41  25  53 W8        30.05R
SILOAM SPRINGS CLEAR     39  21  48 NW7       30.07R WCI  34
HARRISON AR    CLEAR     43  24  47 W6        30.01R
NEAR YELLVILLE CLEAR     43  23  45 W3        30.01R

......KANSAS AND MISSOURI......

CITY           SKY/WX    TMP DP  RH WIND       PRES   REMARKS
KANSAS CTY INT CLEAR     32  20  61 W10       29.99R WCI  24
DOWNTOWN KC    CLEAR     36  19  50 W9        30.01R WCI  29
COLUMBIA       MOCLDY    35  24  64 W15G23    29.97R WCI  25
SEDALIA        CLEAR     33  23  66 W6        29.99R WCI  28
ST JOSEPH      CLEAR     28  18  66 W8        30.01R WCI  20
ST LOUIS       MOCLDY    40  27  59 W15G21    29.94R WCI  32
SPIRIT OF STL  CLOUDY    38  29  70 W7        29.94R WCI  33
KIRKSVILLE     CLOUDY    31  23  72 W15G24    29.91R WCI  20
WICHITA        PTCLDY    38  18  44 N6        30.07R WCI  33
TOPEKA         CLEAR     34  14  43 W5        30.05R WCI  30
OLATHE         CLEAR     34  20  56 NW6       30.00R WCI  29

......TENNESSEE......

CITY           SKY/WX    TMP DP  RH WIND       PRES   REMARKS
MEMPHIS        PTCLDY    45  32  60 SW3       30.01R
NASHVILLE      PTCLDY    49  31  49 CALM      29.99R

......ARKANSAS.......

CITY           SKY/WX    TMP DP  RH WIND       PRES   REMARKS
FAYETTEVILLE   CLEAR     43  24  47 NW8       30.05R
FT SMITH       CLEAR     47  26  44 W7        30.06R
LITTLE ROCK    CLEAR     45  28  51 SW3       30.04R

......OKLAHOMA.......

CITY           SKY/WX    TMP DP  RH WIND       PRES   REMARKS
TULSA          CLEAR     39  24  55 NW5       30.08R
PONCA CITY     CLEAR     40  22  48 CALM      30.08R
MCALESTER      PTCLDY    36  26  67 CALM      30.08R
OKLAHOMA CITY  PTCLDY    46  21  37 NW3       30.09R

......IOWA............

CITY           SKY/WX    TMP DP  RH WIND       PRES   REMARKS
DES MOINES     FLURRIES  28  16  60 NW24G31   29.89R WCI  14
QUAD CITIES    CLOUDY    27  21  78 W23       29.80R WCI  12

......ILLINOIS........

CITY           SKY/WX    TMP DP  RH WIND       PRES   REMARKS
QUINCY         CLOUDY    32  24  72 W10       29.88R WCI  24
CHICAGO        CLOUDY    26  20  77 W20G30    29.70R WCI  12



USA.gov is the U.S. government's official web portal to all federal, state and local government web resources and services.